Temperature
14 15 15 16 16 17 19 22 24 23 23 23 23 23 22 22 21 19 17 17 17 17 17 17 17 17 17 17 17 17 17 17 17 17 17 17 17 17 17 17 17 16 16 16 16 16 16 16 16
14 14 15 16 17 18 20 22 22 22 22 22 22 22 22 22 20 18 17 17 17 17 17 17 17 17 17 17 17 17 17 17 17 17 17 17 17 17 17 16 16 16 16 16 16 16 16 16 16
14 14 16 17 17 19 21 22 22 21 21 21 22 22 22 21 19 18 17 17 17 16 16 17 17 17 17 17 17 17 17 17 17 17 17 16 16 16 16 16 16 16 16 16 16 16 16 16 16
14 15 16 17 18 20 21 21 21 21 21 21 21 21 20 20 18 17 17 17 17 16 16 16 16 16 17 17 17 17 17 17 17 16 16 16 16 16 16 16 16 16 16 16 15 15 15 16 16
14 15 16 17 18 20 21 21 21 21 21 21 20 20 19 18 18 17 17 17 16 16 16 16 16 16 16 16 16 16 17 17 17 16 16 16 16 16 16 16 16 16 15 15 15 15 15 15 15
15 16 16 17 19 20 20 20 20 20 20 20 20 19 19 18 17 17 17 16 16 16 15 15 15 15 16 16 16 16 16 16 16 16 16 16 16 16 16 15 15 15 15 15 15 15 15 15 15
15 15 16 18 19 20 20 19 19 19 19 19 19 19 18 17 17 16 16 16 15 15 15 15 15 15 15 15 15 15 15 16 16 16 16 16 16 15 15 15 15 15 15 15 15 15 15 15 15
14 15 16 17 18 19 18 18 18 17 18 18 18 18 18 17 16 16 16 15 15 15 14 14 14 14 14 14 15 15 15 15 15 15 15 15 15 15 15 15 15 15 15 15 15 15 15 14 14
13 13 15 17 18 18 18 17 17 16 16 17 17 17 16 16 15 15 15 15 14 14 14 14 14 14 14 14 14 14 14 14 14 14 14 15 15 15 15 15 14 14 14 14 14 14 14 14 14
14 13 15 16 16 16 16 16 16 16 16 16 16 16 16 15 15 14 14 14 14 14 14 14 13 14 14 14 14 14 14 14 14 14 14 14 14 14 14 14 14 14 14 14 14 14 14 14 14
14 14 15 16 15 15 15 15 15 15 15 16 16 15 15 14 14 14 14 14 14 13 13 13 13 13 13 13 13 13 13 14 14 14 13 14 13 14 13 13 13 13 13 13 13 13 13 13 13
14 14 15 14 14 13 13 14 14 14 15 15 15 14 14 14 14 14 14 14 13 13 13 12 12 12 12 12 13 13 13 13 13 13 13 13 13 13 13 13 13 13 13 13 13 13 13 13 13
13 14 14 14 13 13 13 13 13 13 14 14 14 14 14 14 14 14 13 13 13 13 12 12 12 12 12 12 12 12 12 12 13 13 13 13 13 13 13 13 13 12 12 12 12 12 12 12 12
13 13 13 13 13 13 12 13 13 13 14 14 14 14 14 13 13 13 13 13 13 12 12 12 12 12 11 11 11 11 12 12 12 12 12 12 12 12 12 12 12 12 12 12 12 12 12 12 12
12 11 12 13 13 13 12 11 13 14 14 14 14 14 14 14 13 13 13 12 12 12 12 12 11 11 11 11 11 11 11 11 11 11 12 12 12 12 12 12 11 11 11 11 11 11 11 11 11
12 11 12 14 14 13 11 11 14 15 14 14 14 14 14 13 13 13 12 12 12 12 12 11 11 11 11 10 10 10 11 11 11 11 11 11 11 11 11 11 11 11 11 11 11 11 11 11 11
11 11 13 13 14 14 12 11 14 15 14 14 14 14 14 13 13 12 12 12 11 11 11 11 11 11 10 10 10 10 10 10 10 10 11 11 11 11 11 10 10 10 10 10 10 10 10 10 10
11 12 13 13 13 13 12 11 13 15 14 14 14 14 13 13 12 12 11 11 11 11 11 10 10 10 10 10 9 9 9 10 10 10 10 10 10 10 10 10 10 10 10 10 10 10 10 10 10
11 11 11 12 13 12 11 11 12 14 14 13 14 13 13 12 12 12 11 11 11 10 10 10 10 10 9 9 9 9 9 9 9 10 10 10 10 10 10 10 9 9 9 10 10 10 10 10 10
10 10 10 12 12 12 10 11 12 13 13 13 13 13 12 12 11 11 11 10 10 10 10 9 9 9 9 9 9 9 9 9 9 9 9 9 9 9 9 9 9 9 9 9 9 9 9 9 9
10 10 10 10 10 11 10 10 12 13 13 13 13 12 12 12 11 11 10 10 10 10 9 9 9 9 8 8 8 8 8 8 8 9 9 9 9 9 9 9 9 9 9 9 9 9 9 9 9
9 11 10 10 8 8 10 8 11 12 12 12 12 12 12 11 11 10 10 10 9 9 9 9 8 8 8 8 8 8 8 8 8 8 8 9 9 9 9 9 9 9 9 9 9 9 9 9 9
10 10 9 9 8 7 9 8 9 12 11 11 11 12 12 11 11 10 10 9 9 9 9 8 8 8 8 8 8 8 8 8 8 8 8 8 8 8 9 8 8 8 8 9 9 9 9 9 9
9 9 9 8 7 6 8 8 9 11 11 11 11 12 11 11 10 10 9 9 9 9 8 8 8 8 8 7 7 7 7 7 7 8 8 8 8 8 8 8 8 8 8 8 8 8 9 8 8
8 7 7 7 6 7 10 10 10 12 12 11 11 11 11 10 10 10 9 9 9 8 8 8 8 7 7 7 7 7 7 7 7 7 7 7 8 8 8 8 8 8 8 8 8 8 8 8 8
7 8 7 7 7 9 10 9 10 12 11 11 11 11 10 10 10 9 9 9 8 8 8 8 7 7 7 7 7 7 7 7 7 7 7 7 7 7 7 8 8 8 8 8 8 8 8 8 8
8 7 8 7 6 6 8 10 11 11 10 10 10 10 10 10 10 9 9 9 8 8 8 7 7 7 7 7 6 6 6 6 6 7 7 7 7 7 7 7 7 7 7 7 8 8 8 8 8
7 8 6 6 6 6 8 10 9 9 9 9 9 9 10 10 9 9 9 8 8 8 7 7 7 6 6 6 6 6 6 6 6 6 6 6 7 7 7 7 7 7 7 7 7 7 7 7 7
6 6 6 6 6 6 7 8 10 9 9 9 9 9 9 9 9 9 8 8 8 7 7 7 6 6 6 6 6 6 6 6 6 6 6 6 6 6 6 6 6 6 6 7 7 7 7 7 7
7 6 6 5 5 5 5 7 10 9 9 9 9 9 9 9 8 8 8 7 7 7 6 6 6 6 6 6 6 6 6 5 5 5 6 6 6 6 6 6 6 6 6 6 6 7 7 7 7
Wind_Speed
14 13 9 3 4 6 9 8 5 0 2 5 6 5 5 4 4 6 5 4 5 6 9 10 8 7 5 5 5 5 5 5 5 5 5 6 6 7 7 7 8 8 9 9 9 9 10 10 10
12 9 5 4 5 8 8 9 6 1 4 5 3 3 3 2 5 8 5 4 5 7 9 9 8 6 5 4 4 4 4 5 4 4 5 5 6 6 7 7 8 8 9 9 9 9 10 10 10
10 9 4 4 7 8 4 2 4 4 5 2 0 2 2 2 5 6 5 4 4 6 8 9 8 6 5 4 3 3 3 3 4 4 5 5 5 6 6 7 8 8 8 8 8 9 10 10 10
6 4 5 7 13 9 5 1 4 3 2 0 1 1 0 4 5 6 5 4 4 5 7 7 8 5 4 3 3 2 2 3 3 4 4 5 5 5 6 7 8 8 8 8 8 9 9 10 10
4 4 7 9 14 10 5 3 1 2 3 3 2 2 1 5 7 6 4 3 3 4 5 5 6 4 3 2 1 2 2 3 3 3 4 5 5 5 6 6 7 8 8 8 8 9 9 10 10
4 4 7 11 11 9 5 2 3 5 4 2 2 4 2 5 6 4 3 2 3 3 4 4 4 3 2 1 1 2 3 3 3 4 5 5 5 5 6 7 8 8 9 9 8 9 9 10 11
5 5 8 11 9 5 2 1 2 5 5 2 3 3 2 4 5 4 3 3 3 3 3 2 2 2 1 1 1 2 4 4 4 5 5 6 6 6 6 7 8 9 10 9 9 10 10 10 11
4 4 8 8 9 5 1 1 2 4 6 3 2 3 2 2 4 4 3 3 2 1 1 1 1 2 1 0 1 2 4 6 6 6 6 6 7 7 7 7 9 10 10 10 10 10 10 10 10
4 5 7 5 4 2 3 2 2 4 6 5 4 5 2 2 3 3 3 2 1 1 1 1 0 1 1 1 2 3 4 6 7 7 7 6 5 6 6 8 8 9 10 11 10 10 10 10 10
5 5 5 3 5 5 5 5 5 4 7 7 6 3 1 2 2 3 4 3 2 2 1 1 1 0 0 1 1 2 3 4 5 5 5 5 4 5 6 7 9 9 10 11 11 11 11 10 8
5 6 5 5 5 6 6 6 6 7 9 7 5 4 2 3 4 5 5 4 3 2 1 1 2 2 1 1 1 1 2 3 3 4 5 5 4 4 4 5 6 8 8 8 9 9 9 8 8
6 8 7 6 4 5 8 7 8 10 10 6 7 6 5 6 6 6 6 4 3 2 2 2 2 3 3 2 2 2 2 3 3 4 5 4 3 3 3 4 5 5 6 6 6 6 8 8 8
9 8 7 8 7 8 10 12 11 13 12 9 8 7 7 7 6 6 5 4 3 3 3 3 3 3 3 3 3 2 3 3 4 3 5 5 4 4 4 4 4 5 6 6 5 6 7 6 7
5 8 10 10 10 8 10 13 10 12 9 8 8 8 8 7 7 6 5 5 4 4 4 3 3 3 3 3 3 3 3 3 4 4 5 5 4 4 4 4 4 4 6 6 6 6 5 5 5
6 8 10 10 10 5 5 12 12 13 9 9 9 8 8 8 7 6 5 5 4 3 3 3 3 4 3 3 4 4 3 4 4 5 6 5 5 5 5 4 4 4 5 6 5 5 5 5 5
6 6 6 5 7 6 4 11 7 4 7 9 9 8 7 7 6 5 4 3 3 3 3 3 3 4 4 4 4 4 4 4 4 4 5 6 6 6 5 4 5 5 5 4 4 5 5 5 5
6 6 7 4 5 4 7 11 9 5 7 10 9 8 7 6 5 4 3 3 4 4 4 4 4 5 5 4 4 4 4 4 4 4 4 5 6 7 6 5 5 5 4 4 5 5 4 4 5
3 5 7 6 3 5 9 14 14 10 10 10 8 7 6 5 5 3 3 3 4 4 4 4 4 5 5 4 4 3 4 4 4 4 5 5 5 6 5 5 6 5 4 4 5 5 5 4 4
7 9 11 11 7 8 12 16 16 13 9 8 7 6 5 5 3 2 2 3 3 4 4 4 4 4 4 4 4 4 5 4 5 6 7 6 6 7 6 5 6 6 6 6 6 5 6 5 4
9 11 12 11 5 7 12 18 18 14 10 7 5 5 5 4 2 2 2 3 4 4 4 4 4 4 4 4 4 4 4 4 5 5 6 6 6 7 7 7 6 6 6 7 7 6 5 4 5
10 10 10 10 11 10 10 12 11 7 6 5 6 5 4 3 3 3 3 3 3 4 4 4 5 5 5 5 4 4 3 3 5 5 6 6 7 7 7 8 7 7 7 7 8 7 7 6 6
8 5 7 9 7 6 5 8 7 6 6 6 6 5 4 3 3 2 2 3 4 4 3 3 4 5 5 4 5 7 6 6 6 5 5 6 6 7 7 7 8 8 7 8 8 8 6 7 7
6 4 6 9 8 8 7 7 9 6 6 7 6 6 4 4 3 2 2 3 4 3 2 3 4 5 5 5 6 7 6 6 5 5 6 7 7 8 8 8 8 8 8 8 8 8 8 7 7
4 5 8 7 4 7 9 8 7 4 5 5 5 4 4 3 2 2 3 2 2 2 2 3 4 5 5 5 6 7 7 7 6 7 6 6 6 6 8 8 7 7 7 8 9 9 9 8 7
3 2 2 2 4 7 5 6 7 3 1 3 3 2 1 1 2 2 3 3 2 3 3 4 4 5 5 5 6 6 7 7 8 8 7 7 6 6 8 8 7 7 8 8 8 9 9 9 9
7 5 4 4 4 3 3 7 4 2 3 4 2 1 1 2 2 3 4 3 3 4 4 4 5 5 5 5 6 6 7 6 6 7 7 7 6 6 7 8 8 8 8 9 8 8 9 8 9
4 6 2 2 5 5 7 6 3 1 3 2 1 0 2 3 3 3 3 3 3 4 4 5 5 5 5 6 6 6 7 6 6 7 7 6 6 6 7 7 8 8 9 9 9 8 9 8 9
5 2 2 3 4 5 7 7 3 1 1 1 1 2 3 3 3 3 3 3 4 4 4 5 6 6 5 5 5 5 6 6 7 6 6 6 6 6 7 8 8 9 9 10 9 8 9 10 9
7 5 5 4 4 4 5 4 2 2 1 1 3 3 4 4 5 4 4 4 4 4 4 5 5 5 5 5 5 5 5 6 6 5 6 6 6 6 7 8 8 9 10 10 9 9 10 11 10
6 7 7 5 5 5 5 5 3 2 1 2 4 5 5 4 4 4 4 4 5 5 5 4 4 4 4 4 4 4 4 4 4 4 5 5 5 6 6 7 7 8 9 9 9 10 10 10 11
Wind_Direction
299 271 252 246 236 232 241 242 244 89 48 36 20 353 345 340 9 102 143 61 58 87 94 100 86 79 82 96 105 114 117 119 124 133 141 153 159 160 159 158 159 157 152 146 147 149 149 146 143
293 271 244 236 236 235 237 226 232 64 65 61 28 316 306 3 76 103 103 59 62 80 87 95 95 81 79 93 105 115 124 128 133 143 146 152 164 168 167 165 162 157 154 151 145 143 144 148 148
274 261 237 227 229 236 248 70 86 78 64 43 156 303 305 32 73 93 95 71 65 77 83 91 102 94 83 89 107 113 123 140 147 153 153 157 169 174 173 170 165 160 158 155 154 152 149 146 147
257 227 242 242 244 249 267 26 84 99 107 246 273 268 147 60 72 90 91 71 68 76 78 90 100 99 97 89 104 119 138 141 150 161 167 169 169 170 173 174 170 165 161 160 161 160 158 155 152
249 239 232 238 245 253 275 326 346 220 195 192 256 257 320 81 81 81 72 50 62 71 78 94 101 93 98 107 138 144 163 174 165 172 181 179 180 180 182 182 176 172 168 167 168 168 169 165 161
241 239 238 239 241 236 228 248 270 273 257 224 242 259 256 126 93 64 46 28 60 78 84 100 106 111 104 100 175 198 188 190 189 186 192 191 192 195 192 189 184 180 176 175 179 177 175 175 171
254 251 251 261 263 253 216 50 275 283 279 291 322 285 207 116 77 51 35 19 41 58 77 85 109 118 131 158 194 225 210 201 199 197 197 198 201 203 202 197 191 188 183 181 184 184 182 181 180
290 276 258 257 258 264 345 352 357 322 297 324 312 267 211 92 42 20 17 12 30 37 77 117 68 57 56 350 254 238 224 208 206 203 199 199 201 203 204 202 196 193 190 186 188 186 185 183 186
274 255 255 268 286 319 47 337 314 322 293 279 254 267 294 359 0 343 325 310 289 258 165 147 150 49 28 304 275 246 230 217 210 202 195 194 198 196 198 200 197 199 197 193 190 188 187 185 189
223 244 257 305 333 338 346 324 315 282 267 261 253 249 265 292 293 280 271 264 254 259 237 164 162 193 308 320 305 265 242 227 216 200 189 193 198 199 202 198 194 199 199 196 193 193 187 181 184
229 250 285 300 329 329 309 290 280 273 264 258 271 284 301 285 272 266 263 258 243 249 278 249 187 195 207 218 270 275 257 234 232 211 202 206 191 190 183 176 183 190 194 190 189 186 188 189 184
253 261 274 283 308 299 289 285 278 255 259 290 301 291 275 268 260 258 263 259 243 243 252 251 216 199 202 211 226 252 243 224 218 223 209 201 188 185 179 180 182 184 187 186 181 188 200 198 190
247 261 269 276 272 268 273 267 269 263 263 266 268 267 256 258 262 261 264 266 248 238 235 242 237 213 203 208 223 241 242 241 224 218 216 201 194 192 188 191 190 194 191 188 196 202 201 202 200
296 302 287 275 265 256 264 269 260 255 251 253 253 250 250 248 255 265 264 266 256 243 236 233 238 227 215 212 220 229 235 233 234 222 222 211 196 193 191 197 198 205 197 191 199 206 204 206 205
287 284 274 244 237 234 272 271 240 243 241 249 251 246 248 247 250 256 259 252 260 252 242 239 250 232 228 227 231 235 237 231 228 227 220 215 205 195 192 197 200 203 196 196 202 205 203 209 207
247 254 258 211 207 193 211 267 260 227 230 251 255 250 248 246 244 249 257 259 267 260 246 236 258 253 244 242 239 234 237 238 230 230 224 214 210 196 191 201 207 203 193 204 210 206 205 207 205
220 250 261 255 209 208 223 264 269 255 245 253 253 248 246 248 244 242 245 255 261 262 258 246 238 248 245 242 243 242 234 236 234 234 224 217 217 203 193 202 209 202 202 209 216 209 203 208 210
271 273 282 275 242 267 261 267 275 266 250 251 253 247 247 247 243 227 233 255 259 262 260 253 242 246 250 245 246 249 244 235 228 226 225 222 222 212 199 206 208 204 204 212 210 208 207 211 208
288 287 284 283 294 288 273 276 277 274 256 245 242 248 253 246 241 208 220 241 253 260 263 260 255 255 255 240 234 235 242 238 229 222 221 215 220 214 206 213 209 208 208 211 211 214 206 211 200
260 270 275 285 295 297 280 279 276 264 244 232 227 230 242 248 258 242 239 245 252 263 263 258 257 260 256 244 240 231 238 237 233 225 222 214 212 211 214 208 210 214 211 211 214 212 210 212 197
254 255 272 290 311 279 276 282 257 234 223 220 218 216 228 237 246 262 268 266 264 269 259 259 254 255 251 251 257 256 246 240 234 227 222 219 213 215 212 214 215 215 211 212 213 212 211 208 209
264 272 277 288 297 286 284 290 269 229 209 212 209 204 204 225 235 253 275 282 280 279 265 252 258 252 247 243 243 242 240 240 237 228 221 220 216 218 213 215 219 217 215 215 217 215 212 204 211
257 310 285 276 272 280 250 249 274 219 215 211 203 194 183 193 212 256 280 284 291 282 256 244 261 258 248 245 241 241 244 245 240 235 225 224 222 221 217 217 221 218 217 219 219 214 213 212 214
274 286 270 253 256 262 230 221 272 230 210 195 183 179 171 175 199 253 270 278 300 306 280 259 264 262 257 247 243 244 247 247 242 241 231 225 224 222 219 221 221 221 219 217 218 216 214 217 219
219 237 286 240 221 247 225 220 249 272 153 145 149 160 172 204 223 256 279 291 306 296 280 267 268 275 270 253 244 245 248 247 243 243 233 229 226 227 219 221 220 224 221 218 216 216 217 216 219
209 212 211 245 257 284 274 240 240 156 88 89 100 118 255 262 259 264 276 280 289 288 284 275 271 271 272 264 254 244 242 246 247 244 238 231 228 229 223 218 223 228 223 224 218 220 222 220 221
201 219 254 286 287 279 252 238 242 150 118 116 125 306 289 261 258 266 279 291 291 288 288 284 277 275 268 264 262 250 242 243 251 250 244 238 229 232 230 227 230 232 226 225 222 224 222 222 222
252 251 175 203 247 264 265 251 241 198 200 17 329 301 301 305 286 270 282 304 304 289 289 292 285 281 274 265 262 263 257 253 250 250 248 244 230 234 236 233 234 234 230 229 227 226 222 222 226
197 213 209 225 239 247 274 270 46 84 50 349 320 321 324 319 312 300 297 301 299 296 291 286 290 292 290 282 273 265 264 259 253 250 251 246 239 233 235 235 234 238 234 229 226 228 223 223 226
213 209 192 205 235 232 260 269 16 34 37 355 340 335 325 314 320 320 318 315 313 310 306 295 298 300 295 292 292 276 268 269 266 265 263 257 255 242 240 239 238 240 239 231 226 229 230 225 226
Height
1480 1483 1485 1488 1490 1488 1481 1466 1456 1457 1459 1462 1464 1466 1467 1470 1473 1483 1484 1482 1482 1482 1481 1482 1483 1484 1485 1487 1489 1490 1492 1493 1494 1496 1497 1498 1499 1501 1502 1503 1504 1505 1506 1507 1508 1509 1510 1511 1512
1479 1483 1487 1487 1487 1486 1473 1460 1458 1459 1462 1465 1467 1469 1469 1471 1474 1478 1479 1480 1481 1481 1481 1482 1483 1484 1485 1487 1488 1490 1491 1492 1494 1495 1496 1497 1499 1500 1501 1502 1504 1505 1506 1507 1508 1509 1509 1510 1511
1480 1483 1486 1482 1479 1475 1465 1457 1458 1460 1464 1466 1469 1470 1471 1473 1475 1477 1479 1480 1480 1481 1481 1481 1482 1483 1484 1486 1487 1489 1490 1491 1493 1494 1495 1496 1497 1499 1500 1502 1503 1504 1505 1506 1507 1508 1509 1510 1511
1482 1484 1483 1480 1473 1463 1459 1458 1459 1462 1465 1467 1469 1471 1472 1474 1475 1477 1478 1479 1480 1480 1480 1480 1481 1482 1483 1484 1486 1487 1489 1490 1491 1492 1493 1495 1496 1497 1499 1500 1501 1503 1504 1505 1506 1507 1508 1509 1510
1481 1482 1480 1476 1468 1461 1458 1458 1460 1462 1465 1467 1469 1470 1472 1474 1474 1476 1477 1478 1478 1479 1479 1479 1480 1481 1482 1483 1484 1486 1487 1488 1489 1491 1492 1493 1494 1496 1497 1498 1500 1501 1502 1503 1504 1505 1506 1507 1508
1481 1478 1477 1472 1463 1457 1457 1460 1462 1463 1464 1466 1469 1470 1472 1473 1473 1474 1476 1477 1477 1477 1477 1478 1478 1479 1480 1481 1482 1484 1485 1486 1487 1488 1490 1491 1492 1494 1495 1496 1497 1499 1500 1501 1502 1504 1505 1506 1507
1480 1476 1472 1465 1460 1457 1458 1460 1462 1464 1465 1467 1468 1469 1471 1471 1472 1473 1474 1475 1475 1476 1476 1476 1477 1477 1478 1479 1480 1481 1482 1483 1484 1486 1487 1488 1490 1491 1493 1494 1495 1496 1498 1499 1500 1501 1502 1504 1505
1478 1476 1469 1464 1461 1459 1460 1462 1464 1466 1466 1467 1468 1469 1469 1470 1470 1471 1472 1473 1473 1473 1474 1474 1475 1475 1475 1476 1477 1478 1480 1481 1482 1483 1484 1485 1487 1488 1489 1491 1492 1494 1495 1496 1497 1499 1500 1501 1503
1477 1479 1471 1463 1461 1461 1461 1463 1465 1466 1467 1467 1467 1468 1468 1468 1468 1469 1470 1471 1471 1471 1472 1472 1472 1473 1473 1474 1475 1476 1477 1478 1479 1480 1481 1482 1484 1485 1486 1488 1489 1491 1492 1494 1495 1496 1497 1498 1500
1476 1476 1467 1464 1463 1463 1464 1465 1466 1466 1465 1465 1465 1466 1466 1466 1467 1468 1468 1469 1469 1469 1469 1469 1469 1470 1470 1471 1471 1472 1473 1475 1476 1477 1478 1479 1480 1481 1483 1484 1486 1487 1489 1490 1492 1493 1494 1495 1497
1472 1470 1465 1464 1465 1465 1465 1466 1466 1465 1463 1462 1463 1463 1463 1464 1465 1465 1466 1466 1466 1466 1466 1466 1466 1467 1467 1467 1468 1469 1469 1471 1472 1473 1474 1475 1477 1478 1479 1481 1482 1484 1485 1487 1488 1490 1491 1492 1493
1469 1467 1466 1465 1465 1466 1466 1465 1464 1462 1460 1460 1461 1461 1461 1461 1462 1462 1463 1463 1463 1463 1463 1463 1463 1463 1463 1464 1464 1465 1466 1467 1468 1469 1470 1472 1472 1474 1475 1477 1478 1480 1482 1483 1484 1486 1487 1489 1490
1468 1465 1465 1465 1465 1464 1464 1463 1462 1457 1456 1457 1457 1457 1458 1458 1458 1459 1459 1459 1459 1459 1459 1459 1459 1459 1460 1460 1460 1461 1461 1462 1463 1464 1466 1467 1468 1469 1471 1473 1474 1476 1478 1479 1481 1482 1484 1485 1487
1466 1465 1464 1463 1462 1461 1461 1458 1458 1451 1453 1453 1453 1453 1454 1454 1455 1455 1455 1455 1455 1455 1455 1455 1456 1456 1456 1456 1456 1456 1457 1458 1459 1460 1461 1463 1464 1465 1467 1469 1470 1472 1474 1475 1477 1478 1480 1482 1483
1467 1466 1461 1457 1457 1457 1459 1455 1449 1447 1449 1449 1449 1449 1450 1450 1451 1451 1451 1451 1451 1451 1451 1451 1451 1451 1451 1451 1452 1452 1453 1454 1454 1455 1456 1458 1459 1461 1462 1464 1466 1468 1470 1471 1473 1474 1476 1478 1479
1465 1464 1460 1452 1452 1453 1459 1453 1442 1442 1444 1444 1445 1445 1445 1446 1446 1447 1447 1447 1447 1447 1447 1447 1447 1447 1447 1447 1447 1447 1448 1449 1449 1450 1451 1452 1455 1456 1457 1459 1461 1463 1465 1467 1468 1470 1471 1473 1475
1462 1461 1455 1451 1448 1449 1452 1448 1440 1439 1440 1440 1440 1440 1440 1441 1442 1442 1443 1443 1443 1443 1443 1442 1442 1442 1442 1442 1442 1443 1443 1444 1445 1446 1446 1447 1449 1451 1453 1454 1456 1459 1460 1462 1464 1465 1467 1468 1470
1460 1457 1453 1451 1447 1447 1448 1443 1437 1436 1435 1435 1435 1436 1436 1437 1438 1438 1438 1438 1438 1438 1438 1438 1438 1438 1437 1437 1437 1437 1438 1439 1440 1441 1442 1442 1444 1447 1448 1450 1452 1454 1455 1457 1459 1461 1462 1464 1466
1458 1458 1457 1450 1446 1446 1444 1438 1432 1430 1429 1429 1430 1431 1432 1433 1433 1434 1435 1435 1434 1434 1434 1433 1433 1432 1432 1431 1431 1431 1432 1433 1434 1436 1437 1437 1439 1441 1443 1445 1447 1448 1450 1452 1454 1456 1457 1459 1462
1458 1459 1455 1447 1444 1445 1441 1435 1426 1423 1422 1423 1425 1426 1428 1429 1429 1430 1431 1431 1430 1430 1429 1429 1428 1428 1427 1427 1427 1427 1427 1428 1429 1430 1432 1432 1434 1436 1438 1440 1441 1443 1445 1447 1449 1450 1452 1454 1457
1455 1456 1453 1451 1447 1443 1442 1434 1420 1416 1417 1419 1421 1423 1424 1425 1426 1426 1427 1427 1427 1426 1425 1424 1424 1423 1423 1423 1423 1422 1422 1423 1424 1425 1426 1427 1428 1430 1432 1434 1436 1437 1439 1440 1443 1444 1446 1448 1451
1454 1449 1450 1451 1455 1450 1443 1445 1420 1414 1415 1416 1417 1419 1421 1422 1423 1423 1423 1423 1422 1421 1421 1420 1420 1419 1419 1419 1418 1418 1417 1418 1418 1418 1419 1421 1423 1425 1426 1428 1430 1431 1433 1434 1437 1439 1441 1443 1444
1449 1449 1450 1450 1452 1453 1443 1446 1425 1412 1413 1413 1414 1415 1417 1419 1420 1420 1420 1420 1418 1417 1416 1416 1416 1415 1414 1414 1414 1413 1413 1413 1413 1414 1414 1416 1417 1419 1421 1422 1423 1424 1426 1428 1431 1432 1434 1437 1438
1449 1450 1448 1448 1452 1455 1436 1438 1424 1411 1408 1408 1410 1412 1414 1416 1417 1417 1417 1417 1415 1414 1413 1412 1411 1410 1410 1409 1409 1409 1409 1408 1409 1408 1409 1410 1411 1413 1414 1416 1417 1418 1420 1422 1424 1426 1428 1430 1432
1450 1454 1456 1454 1456 1446 1422 1425 1419 1405 1402 1404 1407 1410 1412 1413 1414 1414 1414 1413 1412 1411 1409 1408 1407 1406 1405 1405 1404 1404 1404 1404 1404 1404 1404 1405 1405 1407 1408 1409 1411 1412 1413 1415 1418 1420 1422 1424 1426
1448 1449 1455 1455 1445 1432 1423 1422 1411 1402 1402 1403 1406 1408 1409 1411 1411 1411 1411 1410 1409 1408 1406 1405 1403 1401 1400 1400 1399 1399 1399 1399 1399 1399 1399 1399 1400 1401 1402 1403 1405 1406 1408 1409 1411 1413 1415 1418 1420
1445 1446 1443 1448 1447 1445 1428 1410 1406 1401 1403 1404 1405 1406 1407 1408 1408 1408 1408 1407 1406 1405 1403 1401 1400 1398 1396 1395 1394 1394 1394 1394 1394 1394 1394 1394 1394 1396 1397 1397 1398 1400 1401 1403 1404 1406 1408 1411 1413
1442 1441 1447 1450 1451 1442 1422 1410 1410 1405 1405 1404 1405 1405 1406 1406 1405 1405 1405 1404 1403 1402 1400 1398 1396 1394 1392 1391 1389 1389 1388 1388 1389 1389 1388 1389 1389 1390 1391 1391 1392 1393 1394 1396 1398 1399 1402 1404 1406
1442 1443 1442 1444 1441 1443 1432 1418 1404 1404 1404 1405 1404 1404 1404 1404 1403 1402 1402 1401 1400 1398 1396 1394 1392 1390 1388 1386 1385 1384 1384 1384 1383 1383 1383 1383 1383 1384 1384 1385 1386 1387 1388 1389 1391 1392 1395 1397 1399
1434 1435 1439 1446 1444 1438 1436 1423 1404 1404 1403 1404 1404 1404 1403 1402 1401 1400 1399 1397 1396 1394 1392 1390 1388 1385 1383 1382 1381 1379 1379 1379 1378 1377 1377 1377 1377 1378 1378 1379 1379 1380 1381 1383 1384 1385 1388 1390 1391